SB KEPS @ AMSAT $ORB13115.N 2Line Orbital Elements 13115.AMSAT
HR AMSAT ORBITAL ELEMENTS FOR AMATEUR SATELLITES IN NASA FORMAT FROM WA5QGD FORT WORTH,TX April 25, 2013 BID: ORB13115.N
DECODE 2-LINE ELSETS WITH THE FOLLOWING KEY: 1 AAAAAU 00 0 0 BBBBB.BBBBBBBB .CCCCCCCC 00000-0 00000-0 0 DDDZ 2 AAAAA EEE.EEEE FFF.FFFF GGGGGGG HHH.HHHH III.IIII JJ.JJJJJJJJKKKKKZ KEY: A-CATALOGNUM B-EPOCHTIME C-DECAY D-ELSETNUM E-INCLINATION F-RAAN G-ECCENTRICITY H-ARGPERIGEE I-MNANOM J-MNMOTION K-ORBITNUM Z-CHECKSUM
TO ALL RADIO AMATEURS BT
AO-07 1 07530U 74089B 13115.03159480 -.00000041 00000-0 12923-4 0 6640 2 07530 101.4283 106.4735 0012171 034.4144 357.5106 12.53595826759121 FO-29 1 24278U 96046B 13114.76560875 .00000015 00000-0 54768-4 0 1006 2 24278 098.5596 180.4621 0349522 302.6431 207.0698 13.52998520824081 SO-33 1 25509U 98061B 13114.81033512 .00000787 00000-0 14600-3 0 4810 2 25509 031.4325 009.8274 0351235 050.6411 004.3846 14.29017452757253 RS-22 1 27939U 03042A 13115.57071483 .00000412 00000-0 86241-4 0 3542 2 27939 097.7993 306.1690 0013427 359.0939 001.0230 14.64399137511590 VO-52 1 28650U 05017B 13115.11356773 .00001184 00000-0 14823-3 0 4055 2 28650 097.5708 136.4380 0027663 096.4017 295.8952 14.83736386431215 HO-68 1 36122U 09072B 13115.68110952 -.00000044 00000-0 00000 0 0 4910 2 36122 100.3119 174.0504 0007868 113.9543 246.2386 13.16303422161506 UO-11 1 14781U 84021B 13115.20136812 .00000517 00000-0 73706-4 0 1611 2 14781 097.9072 177.2597 0010386 102.4096 257.8279 14.80832349566093 AO-16 1 20439U 90005D 13114.84143802 .00000142 00000-0 68685-4 0 7309 2 20439 098.4682 056.1164 0009961 321.1555 072.5948 14.32160502214609 LO-19 1 20442U 90005G 13115.79562175 .00000143 00000-0 68772-4 0 6640 2 20442 098.4368 059.0018 0010763 307.2083 085.7257 14.32372913214933 AO-27 1 22825U 93061C 13114.86606583 .00000105 00000-0 58049-4 0 3675 2 22825 098.6147 059.4658 0009586 087.1582 306.4879 14.29551427 21013 IO-26 1 22826U 93061D 13114.87627787 .00000128 00000-0 66614-4 0 1249 2 22826 098.6088 059.7737 0010077 081.1302 312.2091 14.29834328 21149 GO-32 1 25397U 98043D 13114.82831894 .00000053 00000-0 41723-4 0 544 2 25397 098.4098 084.9224 0002476 097.3738 292.7748 14.23333705768350 NO-44 1 26931U 01043C 13115.85519706 .00000104 00000-0 72538-4 0 3135 2 26931 067.0538 034.4117 0006871 286.0930 110.1934 14.29911069603945 SO-50 1 27607U 02058C 13115.16375065 .00000493 00000-0 96621-4 0 480 2 27607 064.5578 065.5481 0051746 180.1269 275.8485 14.72865011555906 CO-55 1 27844U 03031E 13114.57247380 .00000194 00000-0 10931-3 0 6323 2 27844 098.7018 124.4248 0010403 050.3341 095.8211 14.21194521509111 CO-57 1 27848U 03031J 13115.54837708 .00000149 00000-0 88754-4 0 5782 2 27848 098.7102 124.8712 0010372 053.3013 092.6363 14.20923290509185 AO-51 1 28375U 04025K 13114.84970295 .00000146 00000-0 56395-4 0 5405 2 28375 098.1969 072.4658 0083848 176.6311 204.1913 14.41097362463658 CP3 1 31129U 07012N 13115.66698362 .00000530 00000-0 12940-3 0 4456 2 31129 097.8958 111.2813 0099386 230.2256 190.4493 14.53580554319368 CO-65 1 32785U 08021C 13115.72547332 .00001052 00000-0 13319-3 0 6142 2 32785 097.7560 174.7469 0015936 118.7374 028.1173 14.83745831270098 PRISM 1 33493U 09002B 13115.89051458 .00001967 00000-0 23300-3 0 7457 2 33493 098.2105 271.1264 0018163 006.6356 353.5107 14.85675445230151 SOHLA-1 1 33496U 09002E 13115.81636146 .00000389 00000-0 72835-4 0 295 2 33496 098.1287 231.9915 0007903 125.2782 035.9699 14.70246922228176 SO-67 1 35870U 09049F 13115.81283943 .00003469 00000-0 13535-3 0 09 2 35870 097.1961 146.4381 0003320 117.1847 358.7250 15.26553097200265 TISAT-1 1 36799U 10035E 13115.76823448 .00001202 00000-0 15422-3 0 168 2 36799 098.0346 200.1521 0013451 235.7555 124.2382 14.83093030150800 STUDSAT 1 36801U 10035G 13115.19141752 .00006489 00000-0 71831-3 0 6197 2 36801 098.0460 202.2447 0011725 214.7597 178.0818 14.87645574150841 ALMASAT-1 1 38078U 12006B 13115.63173273 .00018016 00000-0 45256-3 0 2082 2 38078 069.4841 322.7341 0711121 214.2596 141.0828 14.21477367 61760 XATCOBEO 1 38082U 12006F 13115.55457501 .00066935 37087-5 13499-2 0 1004 2 38082 069.4835 303.5942 0613863 203.6728 153.5294 14.46702883 62289 SOMP 1 39135U 13015F 13115.67851839 .00002982 00000-0 25232-3 0 156 2 39135 064.8815 013.4192 0019282 213.6266 146.4117 14.99828808 958 NOAA-10 1 16969U 86073A 13115.41416535 .00000041 00000-0 34178-4 0 3272 2 16969 098.5493 144.3921 0012824 045.7362 018.2022 14.27629996384419 NOAA-11 1 19531U 88089A 13115.27173341 .00000052 00000-0 48978-4 0 3295 2 19531 098.7110 199.5497 0011921 057.6752 335.2904 14.15010689268644 NOAA-12 1 21263U 91032A 13115.48522913 -.00000001 00000-0 18242-4 0 7995 2 21263 098.7006 141.2797 0013795 018.3967 116.5997 14.25557866141043 MET-3/5 1 21655U 91056A 13115.83230247 .00000292 00000-0 72679-3 0 6747 2 21655 082.5540 291.2865 0012278 258.6509 101.3234 13.17042245 43047 MET-2/21 1 22782U 93055A 13115.64213853 .00000008 00000-0 -60202-5 0 7224 2 22782 082.5475 144.6144 0022065 000.3599 147.9565 13.83702772992376 OKEAN-4 1 23317U 94066A 13115.16881944 .00001008 00000-0 11671-3 0 2006 2 23317 082.5374 099.4124 0022110 045.6333 142.0926 14.84364008 1076 NOAA-14 1 23455U 94089A 13115.43628435 .00000074 00000-0 61983-4 0 2844 2 23455 098.8029 200.6721 0010384 144.2313 346.4614 14.13902055944914 NOAA-15 1 25338U 98030A 13115.57995230 .00000137 00000-0 77238-4 0 7048 2 25338 098.7221 106.0796 0009442 280.9744 218.1898 14.25203652777349 RESURS 1 25394U 98043A 13115.12682152 -.00000023 00000-0 79529-5 0 3598 2 25394 098.3575 093.5222 0002337 072.8125 066.4672 14.24327133768805 FENGYUN1 1 25730U 99025A 13115.48949503 .00001124 00000-0 65532-3 0 8581 2 25730 098.8755 075.6607 0023419 191.6685 317.7101 14.10400904718613 OKEAN-0 1 25860U 99039A 13115.47237705 .00000457 00000-0 76208-4 0 9282 2 25860 097.9854 078.6461 0001048 080.1110 067.8359 14.74549920740588 NOAA-16 1 26536U 00055A 13115.52218824 .00000064 00000-0 58918-4 0 1813 2 26536 099.0475 167.7532 0009458 283.6731 207.1565 14.12864260649138 NOAA-17 1 27453U 02032A 13115.61883875 .00000049 00000-0 38563-4 0 1034 2 27453 098.3143 132.4835 0010673 324.6984 182.6512 14.24582277563236 NOAA-18 1 28654U 05018A 13115.57583411 .00000073 00000-0 65341-4 0 5870 2 28654 099.0952 083.0502 0014152 001.3321 129.8587 14.11802689408633 NOAA-19 1 33591U 09005A 13115.58046478 .00000066 00000-0 60598-4 0 7721 2 33591 098.9005 058.0696 0013519 214.5887 263.3308 14.11490068217078 HUBBLE 1 20580U 90037B 13114.77321830 .00001722 00000-0 11104-3 0 2259 2 20580 028.4694 262.9569 0003232 134.3085 358.5015 15.03501685 61652 ISS 1 25544U 98067A 13115.95148148 .00011030 00000-0 18379-3 0 6815 2 25544 051.6475 007.4696 0010087 182.6952 000.7808 15.52500078826597 CO-58 1 28895U 05043F 13114.80185667 .00000541 00000-0 11896-3 0 4594 2 28895 097.8763 332.7171 0016443 247.6445 112.3014 14.61046811399148 FALCON 1 30776U 07006E 13115.54164456 .00003605 00000-0 21876-3 0 5999 2 30776 035.4296 165.2265 0002508 220.0862 287.4508 15.10173985337452 MAST 1 31126U 07012K 13115.03408703 .00000377 00000-0 93842-4 0 7376 2 31126 097.8800 113.9973 0092755 217.6106 175.2291 14.54514121319593 CAPE1 1 31130U 07012P 13114.96853951 .00000481 00000-0 11868-3 0 7464 2 31130 097.8964 110.2686 0099790 233.2949 125.9049 14.53413107319049 COMPASS 1 32787U 08021E 13115.68879071 .00001958 00000-0 23378-3 0 6058 2 32787 097.7567 175.6081 0016408 116.1069 029.9485 14.85253997270178 AAUSAT2 1 32788U 08021F 13115.15795318 .00002113 00000-0 24920-3 0 5914 2 32788 097.7578 175.6779 0015888 117.8683 299.0370 14.85691762270131 DO-64 1 32789U 08021G 13115.75687392 .00003123 00000-0 34453-3 0 6200 2 32789 097.7723 179.7333 0015491 110.1457 037.6100 14.88108728270326 CO-66 1 32791U 08021J 13115.13368970 .00001551 00000-0 19010-3 0 5881 2 32791 097.7569 174.4974 0016823 118.7597 293.6819 14.84438277270006 RS-30 1 32953U 08025A 13115.90469641 .00000010 00000-0 00000 0 0 7984 2 32953 082.4977 100.7021 0018677 351.6205 008.4567 12.43033274223414 METEOR-M 1 35865U 09049A 13115.66026051 -.00000027 00000-0 71280-5 0 3960 2 35865 098.6074 169.3603 0001739 212.8301 147.2763 14.21883589187003 RS-38 1 35869U 09049E 13115.70248068 .00000003 00000-0 20724-4 0 3669 2 35869 098.6012 169.3309 0003852 221.8263 138.2617 14.22122215187031 JUGNU 1 37839U 11058B 13114.75007377 .00000406 00000-0 75423-4 0 3732 2 37839 019.9615 270.5679 0019172 054.2282 068.6049 14.12143818 79330 SRMSAT 1 37841U 11058D 13115.79861362 .00000388 00000-0 68944-4 0 3753 2 37841 019.9719 275.2340 0012046 021.4810 114.0381 14.10216354 79363 RAX-2 1 37853U 11061D 13115.55483825 .00006076 00000-0 46374-3 0 4852 2 37853 101.7170 304.8176 0237355 178.3165 216.6586 14.82989545 80647 AUBIESAT 1 37854U 11061E 13115.01441250 .00008552 00000-0 63608-3 0 4793 2 37854 101.7196 304.7852 0237276 178.6229 308.6023 14.83639677 80571 HRBE 1 37855U 11061F 13115.52936909 .00007724 00000-0 57791-3 0 4785 2 37855 101.7207 305.3400 0238365 177.5424 218.3041 14.83340622 80640 RS-39 1 38051U 11062C 13115.73048611 .00009398 00000-0 32059-3 0 3825 2 38051 051.6354 103.4811 0013708 073.7816 286.2146 15.30953165 69734 E-STAR 1 38079U 12006C 13115.53273760 .00055470 34578-5 11713-2 0 708 2 38079 069.4780 308.4678 0644189 206.5609 183.5339 14.39392228 62147 GOLIAT 1 38085U 12006J 13115.52886637 .00054613 34347-5 11614-2 0 9898 2 38085 069.4740 310.2631 0651749 207.4855 149.0696 14.37646679 62090 HORYU-2 1 38340U 12025D 13114.83846668 .00000914 00000-0 15785-3 0 4748 2 38340 098.2101 062.0456 0013822 063.7164 296.5532 14.70788240 50274 RS-40 1 38736U 12041D 13115.66839922 .00000010 00000-0 00000 0 0 2545 2 38736 082.4813 187.8637 0022893 082.5465 277.8216 12.42867390 33729 PROITERES 1 38756U 12047B 13115.85179711 .00000314 00000-0 55753-4 0 7202 2 38756 098.2553 191.9291 0011382 274.1921 085.7980 14.74152956 33687 RAIKO 1 38852U 98067CN 13115.70919905 .00077046 00000-0 65230-3 0 2072 2 38852 051.6404 357.9481 0014719 170.8238 189.3031 15.68879575 31602 FITSAT 1 1 38853U 98067CP 13115.09948883 .00125102 00000-0 84625-3 0 2078 2 38853 051.6423 358.3954 0012159 182.2395 177.8552 15.74045134 31592 TechEdSat 1 38854U 98067CQ 13115.74827905 .00699860 23051-3 13830-2 0 2634 2 38854 051.6296 346.8231 0013301 223.1727 136.8241 15.99241013 31800 F 1 1 38855U 98067CR 13115.71979602 .00487209 10547-3 12966-2 0 2440 2 38855 051.6249 348.1240 0012135 209.1705 150.8665 15.93876645 31689 WeWish 1 38856U 98067CS 13069.98095549 .16701328 12537-4 10063-2 0 2487 2 38856 051.6166 215.0521 0008325 316.0438 044.8765 16.41348316 24586 OSSI-1 1 39130U 13015A 13115.81379825 -.00000907 00000-0 -60404-4 0 223 2 39130 064.8803 013.0059 0017230 203.9480 156.0811 14.99154376 960 BEESAT2-3 1 39131U 13015B 13111.50052306 -.00001974 62411-5 00000 0 0 20 2 39131 064.9363 026.5170 0214649 059.2674 114.9122 15.54454958 325 GRAHAM 1 39142U 13016A 13115.87802221 .02496829 11954-4 97596-3 0 142 2 39142 051.6442 288.7476 0005501 354.1848 006.1492 16.23101489 646 BELL 1 39143U 13016B 13115.93695072 .03947279 12084-4 10820-2 0 199 2 39143 051.6192 288.3393 0009337 335.7831 025.1381 16.27132177 663 ALEXANDER 1 39146U 13016E 13115.75196322 .04294590 00000-0 12440-2 0 87 2 39146 051.6161 289.4007 0006311 330.4052 029.6754 16.26554436 536 /EX